Year,Month,Day,Hour,Minute,Value (Times are PST for temperature in C)
2016,04,21,10,08,19.80
2016,04,21,10,11,15.80
2016,04,21,10,12,15.80
2016,04,21,10,13,15.80
2016,04,21,10,14,15.70
2016,04,21,10,15,15.70
2016,04,21,10,16,15.80
2016,04,21,10,17,16.00
2016,04,21,10,18,16.20
2016,04,21,10,19,16.20
2016,04,21,10,20,16.10
2016,04,21,10,21,16.10
2016,04,21,10,22,16.10
2016,04,21,10,23,16.30
2016,04,21,10,24,16.40
2016,04,21,10,25,16.40
2016,04,21,10,26,16.40
2016,04,21,10,27,16.20
2016,04,21,10,28,16.10
2016,04,21,10,29,15.90
2016,04,21,10,30,15.70
2016,04,21,10,31,15.30
2016,04,21,10,32,15.00
2016,04,21,10,33,15.00
2016,04,21,10,34,15.00
2016,04,21,10,35,14.80
2016,04,21,10,36,14.80
2016,04,21,10,37,14.70
2016,04,21,10,38,14.60
2016,04,21,10,39,14.60
2016,04,21,10,40,14.60
2016,04,21,10,41,14.70
2016,04,21,10,42,14.70
2016,04,21,10,43,14.70
2016,04,21,10,44,14.70
2016,04,21,10,45,14.80
2016,04,21,10,46,15.00
2016,04,21,10,47,15.00
2016,04,21,10,48,15.00
2016,04,21,10,49,15.10
2016,04,21,10,50,15.20
2016,04,21,10,51,15.30
2016,04,21,10,52,15.30
2016,04,21,10,53,15.30
2016,04,21,10,54,15.30
2016,04,21,10,55,15.30
2016,04,21,10,56,15.40
2016,04,21,10,57,15.40
2016,04,21,10,58,15.40
2016,04,21,10,59,15.30
2016,04,21,11,00,15.10
2016,04,21,11,01,15.00
2016,04,21,11,02,15.00
2016,04,21,11,03,14.90
2016,04,21,11,04,14.80
2016,04,21,11,05,14.80
2016,04,21,11,06,14.80
2016,04,21,11,07,14.80
2016,04,21,11,08,14.80
2016,04,21,11,09,14.80
2016,04,21,11,10,14.70
2016,04,21,11,11,14.60
2016,04,21,11,12,14.60
2016,04,21,11,13,14.60
2016,04,21,11,14,14.60
2016,04,21,11,15,14.60
2016,04,21,11,16,14.60
2016,04,21,11,17,14.60
2016,04,21,11,18,14.80
2016,04,21,11,19,15.00
2016,04,21,11,20,15.00
2016,04,21,11,21,15.00
2016,04,21,11,22,15.00
2016,04,21,11,23,15.00
2016,04,21,11,24,15.00
2016,04,21,11,25,15.00
2016,04,21,11,26,15.00
2016,04,21,11,27,15.00
2016,04,21,11,28,15.00
2016,04,21,11,29,15.10
2016,04,21,11,30,15.00
2016,04,21,11,31,15.00
2016,04,21,11,32,15.00
2016,04,21,11,33,15.00
2016,04,21,11,34,15.00
2016,04,21,11,35,14.90
2016,04,21,11,36,14.90
2016,04,21,11,37,14.80
2016,04,21,11,38,14.90
2016,04,21,11,39,15.00
2016,04,21,11,40,15.00
2016,04,21,11,41,15.00
2016,04,21,11,42,15.00
2016,04,21,11,43,15.00
2016,04,21,11,44,15.20
2016,04,21,11,45,15.40
2016,04,21,11,46,15.40
2016,04,21,11,47,15.40
2016,04,21,11,48,15.40
2016,04,21,11,49,15.30
2016,04,21,11,50,15.20
2016,04,21,11,51,15.10
2016,04,21,11,52,15.00
2016,04,21,11,53,15.00
2016,04,21,11,54,15.00
2016,04,21,11,55,15.00
2016,04,21,11,56,15.00
2016,04,21,11,57,15.00
2016,04,21,11,58,15.00
2016,04,21,11,59,15.00
2016,04,21,12,00,15.00
2016,04,21,12,01,15.00
2016,04,21,12,02,15.00
2016,04,21,12,03,15.00
2016,04,21,12,04,15.00
2016,04,21,12,05,15.10
2016,04,21,12,06,15.20
2016,04,21,12,07,15.30
2016,04,21,12,08,15.40
2016,04,21,12,09,15.60
2016,04,21,12,10,15.80
2016,04,21,12,11,16.00
2016,04,21,12,12,16.30
2016,04,21,12,13,16.50
2016,04,21,12,14,16.60
2016,04,21,12,15,16.70
2016,04,21,12,16,16.80
2016,04,21,12,17,17.00
2016,04,21,12,18,17.00
2016,04,21,12,19,16.80
2016,04,21,12,20,16.70
2016,04,21,12,21,16.50
2016,04,21,12,22,16.50
2016,04,21,12,23,16.50
2016,04,21,12,24,16.60
2016,04,21,12,25,16.80
2016,04,21,12,26,16.90
2016,04,21,12,27,16.90
2016,04,21,12,28,16.90
2016,04,21,12,29,16.80
2016,04,21,12,30,16.80
2016,04,21,12,31,16.90
2016,04,21,12,32,17.10
2016,04,21,12,33,17.20
2016,04,21,12,34,17.30
2016,04,21,12,35,17.30
2016,04,21,12,36,17.30
2016,04,21,12,37,17.30
2016,04,21,12,38,17.10
2016,04,21,12,39,16.90
2016,04,21,12,40,16.80
2016,04,21,12,41,16.70
2016,04,21,12,42,16.60
2016,04,21,12,43,16.70
2016,04,21,12,44,16.70
2016,04,21,12,45,16.70
2016,04,21,12,46,16.70
2016,04,21,12,47,16.80
2016,04,21,12,48,16.80
2016,04,21,12,49,16.90
2016,04,21,12,50,16.90
2016,04,21,12,51,17.00
2016,04,21,12,52,16.90
2016,04,21,12,53,17.00
2016,04,21,12,54,17.10
2016,04,21,12,55,17.20
2016,04,21,12,56,17.20
2016,04,21,12,57,17.20
2016,04,21,12,58,17.10
2016,04,21,12,59,17.10
2016,04,21,13,00,17.20
2016,04,21,13,01,17.30
2016,04,21,13,02,17.30
2016,04,21,13,03,17.30
2016,04,21,13,04,17.10
2016,04,21,13,05,16.90
2016,04,21,13,06,16.70
2016,04,21,13,07,16.50
2016,04,21,13,08,16.40
2016,04,21,13,09,16.30
2016,04,21,13,10,16.20
2016,04,21,13,11,16.30
2016,04,21,13,12,16.30
2016,04,21,13,13,16.30
2016,04,21,13,14,16.40
2016,04,21,13,15,16.40
2016,04,21,13,16,16.40
2016,04,21,13,17,16.50
2016,04,21,13,18,16.60
2016,04,21,13,19,16.70
2016,04,21,13,20,16.80
2016,04,21,13,21,16.80
2016,04,21,13,22,17.00
2016,04,21,13,23,17.00
2016,04,21,13,24,17.10
2016,04,21,13,25,17.10
2016,04,21,13,26,17.10
2016,04,21,13,27,17.10
2016,04,21,13,28,17.00
2016,04,21,13,29,17.00
2016,04,21,13,30,17.00
2016,04,21,13,31,17.00
2016,04,21,13,32,17.00
2016,04,21,13,33,17.00
2016,04,21,13,34,17.10
2016,04,21,13,35,17.00
2016,04,21,13,36,16.90
2016,04,21,13,37,16.80
2016,04,21,13,38,16.70
2016,04,21,13,39,16.60
2016,04,21,13,40,16.60
2016,04,21,13,41,16.60
2016,04,21,13,42,16.60
2016,04,21,13,43,16.70
2016,04,21,13,44,16.80
2016,04,21,13,45,16.80
2016,04,21,13,46,16.90
2016,04,21,13,47,17.00
2016,04,21,13,48,17.10
2016,04,21,13,49,17.10
2016,04,21,13,50,17.20
2016,04,21,13,51,17.30
2016,04,21,13,52,17.30
2016,04,21,13,53,17.30
2016,04,21,13,54,17.20
2016,04,21,13,55,17.10
2016,04,21,13,56,17.10
2016,04,21,13,57,17.10
2016,04,21,13,58,17.00
2016,04,21,13,59,17.00
2016,04,21,14,00,16.90
2016,04,21,14,01,16.90
2016,04,21,14,02,17.00
2016,04,21,14,03,17.10
2016,04,21,14,04,17.10
2016,04,21,14,05,17.20
2016,04,21,14,06,17.30
2016,04,21,14,07,17.30
2016,04,21,14,08,17.40
2016,04,21,14,09,17.50
2016,04,21,14,10,17.60
2016,04,21,14,11,17.70
2016,04,21,14,12,17.70
2016,04,21,14,13,17.70
2016,04,21,14,14,17.70
2016,04,21,14,15,17.70
2016,04,21,14,16,17.70
2016,04,21,14,17,17.70
2016,04,21,14,18,17.60
2016,04,21,14,19,17.50
2016,04,21,14,20,17.50
2016,04,21,14,21,17.40
2016,04,21,14,22,17.30
2016,04,21,14,23,17.30
2016,04,21,14,24,17.30
2016,04,21,14,25,17.30
2016,04,21,14,26,17.30
2016,04,21,14,27,17.30
2016,04,21,14,28,17.30
2016,04,21,14,29,17.30
2016,04,21,14,30,17.30
2016,04,21,14,31,17.40
2016,04,21,14,32,17.40
2016,04,21,14,33,17.50
2016,04,21,14,34,17.50
2016,04,21,14,35,17.50
2016,04,21,14,36,17.60
2016,04,21,14,37,17.60
2016,04,21,14,38,17.70
2016,04,21,14,39,17.70
2016,04,21,14,40,17.70
2016,04,21,14,41,17.70
2016,04,21,14,42,17.70
2016,04,21,14,43,17.70
2016,04,21,14,44,17.70
2016,04,21,14,45,17.70
2016,04,21,14,46,17.60
2016,04,21,14,47,17.60
2016,04,21,14,48,17.60
2016,04,21,14,49,17.60
2016,04,21,14,50,17.60
2016,04,21,14,51,17.50
2016,04,21,14,52,17.40
2016,04,21,14,53,17.40
2016,04,21,14,54,17.50
2016,04,21,14,55,17.50
2016,04,21,14,56,17.50
2016,04,21,14,57,17.50
2016,04,21,14,58,17.60
2016,04,21,14,59,17.60
2016,04,21,15,00,17.70
2016,04,21,15,01,17.80
2016,04,21,15,02,17.80
2016,04,21,15,03,17.80
2016,04,21,15,04,17.90
2016,04,21,15,05,18.00
2016,04,21,15,06,18.10
2016,04,21,15,07,18.20
2016,04,21,15,08,18.20
2016,04,21,15,09,18.30
2016,04,21,15,10,18.30
2016,04,21,15,11,18.40
2016,04,21,15,12,18.50
2016,04,21,15,13,18.50
2016,04,21,15,14,18.50
2016,04,21,15,15,18.60
2016,04,21,15,16,18.50
2016,04,21,15,17,18.50
2016,04,21,15,18,18.60
2016,04,21,15,19,18.70
2016,04,21,15,20,18.60
2016,04,21,15,21,18.50
2016,04,21,15,22,18.50
2016,04,21,15,23,18.50
2016,04,21,15,24,18.50
2016,04,21,15,25,18.40
2016,04,21,15,26,18.40
2016,04,21,15,27,18.40
2016,04,21,15,28,18.40
2016,04,21,15,29,18.50
2016,04,21,15,30,18.50
2016,04,21,15,31,18.40
2016,04,21,15,32,18.40
2016,04,21,15,33,18.40
2016,04,21,15,34,18.30
2016,04,21,15,35,18.30
2016,04,21,15,36,18.20
2016,04,21,15,37,18.20
2016,04,21,15,38,18.20
2016,04,21,15,39,18.10
2016,04,21,15,40,18.10
2016,04,21,15,41,18.10
2016,04,21,15,42,18.10
2016,04,21,15,43,18.10
2016,04,21,15,44,18.10
2016,04,21,15,45,18.10
2016,04,21,15,46,18.00
2016,04,21,15,47,17.90
2016,04,21,15,48,17.60
2016,04,21,15,49,17.40
2016,04,21,15,50,17.30
2016,04,21,15,51,17.10
2016,04,21,15,52,17.10
2016,04,21,15,53,17.10
2016,04,21,15,54,17.10
2016,04,21,15,55,17.10
2016,04,21,15,56,17.20
2016,04,21,15,57,17.30
2016,04,21,15,58,17.50
2016,04,21,15,59,17.70
2016,04,21,16,00,17.80
2016,04,21,16,01,17.80
2016,04,21,16,02,17.80
2016,04,21,16,03,17.90
2016,04,21,16,04,18.00
2016,04,21,16,05,18.00
2016,04,21,16,06,18.00
2016,04,21,16,07,18.00
2016,04,21,16,08,18.10
2016,04,21,16,09,18.10
2016,04,21,16,10,18.10
2016,04,21,16,11,18.10
2016,04,21,16,12,18.10
2016,04,21,16,13,18.00
2016,04,21,16,14,18.00
2016,04,21,16,15,17.90
2016,04,21,16,16,17.90
2016,04,21,16,17,17.80
2016,04,21,16,18,17.70
2016,04,21,16,19,17.60
2016,04,21,16,20,17.60
2016,04,21,16,21,17.50
2016,04,21,16,22,17.50
2016,04,21,16,23,17.40
2016,04,21,16,24,17.40
2016,04,21,16,25,17.40
2016,04,21,16,26,17.50
2016,04,21,16,27,17.60
2016,04,21,16,28,17.70
2016,04,21,16,29,17.80
2016,04,21,16,30,17.80
2016,04,21,16,31,17.80
2016,04,21,16,32,17.80
2016,04,21,16,33,17.90
2016,04,21,16,34,18.00
2016,04,21,16,35,18.10
2016,04,21,16,36,18.10
2016,04,21,16,37,18.10
2016,04,21,16,38,18.10
2016,04,21,16,39,18.10
2016,04,21,16,40,18.00
2016,04,21,16,41,17.90
2016,04,21,16,42,17.90
2016,04,21,16,43,17.80
2016,04,21,16,44,17.80
2016,04,21,16,45,17.80
2016,04,21,16,46,17.80
2016,04,21,16,47,17.80
2016,04,21,16,48,17.70
2016,04,21,16,49,17.60
2016,04,21,16,50,17.50
2016,04,21,16,51,17.40
2016,04,21,16,52,17.30
2016,04,21,16,53,17.20
2016,04,21,16,54,17.10
2016,04,21,16,55,17.10
2016,04,21,16,56,17.00
2016,04,21,16,57,16.80
2016,04,21,16,58,16.60
2016,04,21,16,59,16.40
2016,04,21,17,00,16.20
2016,04,21,17,01,16.00
2016,04,21,17,02,15.90
2016,04,21,17,03,15.80
2016,04,21,17,04,15.80
2016,04,21,17,05,15.70
2016,04,21,17,06,15.60
2016,04,21,17,07,15.60
2016,04,21,17,08,15.50
2016,04,21,17,09,15.50
2016,04,21,17,10,15.50
2016,04,21,17,11,15.50
2016,04,21,17,12,15.60
2016,04,21,17,13,15.60
2016,04,21,17,14,15.60
2016,04,21,17,15,15.60
2016,04,21,17,16,15.60
2016,04,21,17,17,15.60
2016,04,21,17,18,15.70
2016,04,21,17,19,15.70
2016,04,21,17,20,15.80
2016,04,21,17,21,15.80
2016,04,21,17,22,15.70
2016,04,21,17,23,15.70
2016,04,21,17,24,15.70
2016,04,21,17,25,15.70
2016,04,21,17,26,15.70
2016,04,21,17,27,15.70
2016,04,21,17,28,15.70
2016,04,21,17,29,15.70
2016,04,21,17,30,15.60
2016,04,21,17,31,15.60
2016,04,21,17,32,15.60
2016,04,21,17,33,15.60
2016,04,21,17,34,15.60
2016,04,21,17,35,15.60
2016,04,21,17,36,15.60
2016,04,21,17,37,15.60
2016,04,21,17,38,15.60
2016,04,21,17,39,15.60
2016,04,21,17,40,15.60
2016,04,21,17,41,15.50
2016,04,21,17,42,15.50
2016,04,21,17,43,15.50
2016,04,21,17,44,15.40
2016,04,21,17,45,15.40
2016,04,21,17,46,15.30
2016,04,21,17,47,15.20
2016,04,21,17,48,15.00
2016,04,21,17,49,15.00
2016,04,21,17,50,15.00
2016,04,21,17,51,15.00
2016,04,21,17,52,14.90
2016,04,21,17,53,14.80
2016,04,21,17,54,14.70
2016,04,21,17,55,14.70
2016,04,21,17,56,14.70
2016,04,21,17,57,14.60
2016,04,21,17,58,14.60
2016,04,21,17,59,14.60
2016,04,21,18,00,14.60
2016,04,21,18,01,14.60
2016,04,21,18,02,14.60
2016,04,21,18,03,14.60
2016,04,21,18,04,14.60
2016,04,21,18,05,14.60
2016,04,21,18,06,14.60
2016,04,21,18,07,14.60
2016,04,21,18,08,14.50
2016,04,21,18,09,14.50
2016,04,21,18,10,14.40
2016,04,21,18,11,14.40
2016,04,21,18,12,14.40
2016,04,21,18,13,14.40
2016,04,21,18,14,14.30
2016,04,21,18,15,14.30
2016,04,21,18,16,14.30
2016,04,21,18,17,14.20
2016,04,21,18,18,14.20
2016,04,21,18,19,14.20
2016,04,21,18,20,14.10
2016,04,21,18,21,14.10
2016,04,21,18,22,14.10
2016,04,21,18,23,14.10
2016,04,21,18,24,14.20
2016,04,21,18,25,14.10
2016,04,21,18,26,14.10
2016,04,21,18,27,14.10
2016,04,21,18,28,14.10
2016,04,21,18,29,14.10
2016,04,21,18,30,14.10
2016,04,21,18,31,14.10
2016,04,21,18,32,14.10
2016,04,21,18,33,14.10
2016,04,21,18,34,14.10
2016,04,21,18,35,14.10
2016,04,21,18,36,14.10
2016,04,21,18,37,14.10
2016,04,21,18,38,14.10
2016,04,21,18,39,14.10
2016,04,21,18,40,14.10
2016,04,21,18,41,14.10
2016,04,21,18,42,14.10
2016,04,21,18,43,14.10
2016,04,21,18,44,14.10
2016,04,21,18,45,14.10
2016,04,21,18,46,14.10
2016,04,21,18,47,14.20
2016,04,21,18,48,14.20
2016,04,21,18,49,14.20
2016,04,21,18,50,14.20
2016,04,21,18,51,14.20
2016,04,21,18,52,14.20
2016,04,21,18,53,14.30
2016,04,21,18,54,14.30
2016,04,21,18,55,14.30
2016,04,21,18,56,14.30
2016,04,21,18,57,14.30
2016,04,21,18,58,14.30
2016,04,21,18,59,14.30
2016,04,21,19,00,14.30
2016,04,21,19,01,14.20
2016,04,21,19,02,14.20
2016,04,21,19,03,14.20
2016,04,21,19,04,14.30
2016,04,21,19,05,14.30
2016,04,21,19,06,14.30
2016,04,21,19,07,14.30
2016,04,21,19,08,14.30
2016,04,21,19,09,14.30
2016,04,21,19,10,14.30
2016,04,21,19,11,14.30
2016,04,21,19,12,14.30
2016,04,21,19,13,14.30
2016,04,21,19,14,14.30
2016,04,21,19,15,14.30
2016,04,21,19,16,14.30
2016,04,21,19,17,14.30
2016,04,21,19,18,14.30
2016,04,21,19,19,14.30
2016,04,21,19,20,14.40
2016,04,21,19,21,14.40
2016,04,21,19,22,14.40
2016,04,21,19,23,14.40
2016,04,21,19,24,14.40
2016,04,21,19,25,14.40
2016,04,21,19,26,14.40
2016,04,21,19,27,14.40
2016,04,21,19,28,14.40
2016,04,21,19,29,14.40
2016,04,21,19,30,14.40
2016,04,21,19,31,14.40
2016,04,21,19,32,14.40
2016,04,21,19,33,14.40
2016,04,21,19,34,14.40
2016,04,21,19,35,14.40
2016,04,21,19,36,14.50
2016,04,21,19,37,14.50
2016,04,21,19,38,14.60
2016,04,21,19,39,14.60
2016,04,21,19,40,14.70
2016,04,21,19,41,14.70
2016,04,21,19,42,14.80
2016,04,21,19,43,14.80
2016,04,21,19,44,14.90
2016,04,21,19,45,15.00
2016,04,21,19,46,15.00
2016,04,21,19,47,15.00
2016,04,21,19,48,15.00
2016,04,21,19,49,15.00
2016,04,21,19,50,15.00
2016,04,21,19,51,15.10
2016,04,21,19,52,15.20
2016,04,21,19,53,15.30
2016,04,21,19,54,15.40
2016,04,21,19,55,15.40
2016,04,21,19,56,15.50
2016,04,21,19,57,15.50
2016,04,21,19,58,15.60
2016,04,21,19,59,15.60
2016,04,21,20,00,15.70
2016,04,21,20,01,15.70
2016,04,21,20,02,15.70
2016,04,21,20,03,15.80
2016,04,21,20,04,15.80
2016,04,21,20,05,15.80
2016,04,21,20,06,15.80
2016,04,21,20,07,15.90
2016,04,21,20,08,15.90
2016,04,21,20,09,15.90
2016,04,21,20,10,15.90
2016,04,21,20,11,15.90
2016,04,21,20,12,15.90
2016,04,21,20,13,15.90
2016,04,21,20,14,15.90
2016,04,21,20,15,15.90
2016,04,21,20,16,15.90
2016,04,21,20,17,15.90
2016,04,21,20,18,15.90
2016,04,21,20,19,15.90
2016,04,21,20,20,15.90
2016,04,21,20,21,15.90
2016,04,21,20,22,15.90
2016,04,21,20,23,15.90
2016,04,21,20,24,15.90
2016,04,21,20,25,15.90
2016,04,21,20,26,15.80
2016,04,21,20,27,15.80
2016,04,21,20,28,15.80
2016,04,21,20,29,15.80
2016,04,21,20,30,15.80
2016,04,21,20,31,15.80
2016,04,21,20,32,15.80
2016,04,21,20,33,15.70
2016,04,21,20,34,15.70
2016,04,21,20,35,15.70
2016,04,21,20,36,15.70
2016,04,21,20,37,15.70
2016,04,21,20,38,15.70
2016,04,21,20,39,15.70
2016,04,21,20,40,15.70
2016,04,21,20,41,15.70
2016,04,21,20,42,15.70
2016,04,21,20,43,15.70
2016,04,21,20,44,15.60
2016,04,21,20,45,15.60
2016,04,21,20,46,15.60
2016,04,21,20,47,15.60
2016,04,21,20,48,15.60
2016,04,21,20,49,15.60
2016,04,21,20,50,15.60
2016,04,21,20,51,15.60
2016,04,21,20,52,15.60
2016,04,21,20,53,15.60
2016,04,21,20,54,15.60
2016,04,21,20,55,15.60
2016,04,21,20,56,15.60
2016,04,21,20,57,15.60
2016,04,21,20,58,15.70
2016,04,21,20,59,15.70
2016,04,21,21,00,15.70
2016,04,21,21,01,15.70
2016,04,21,21,02,15.80
2016,04,21,21,03,15.70
2016,04,21,21,04,15.70
2016,04,21,21,05,15.70
2016,04,21,21,06,15.70
2016,04,21,21,07,15.70
2016,04,21,21,08,15.70
2016,04,21,21,09,15.60
2016,04,21,21,10,15.60
2016,04,21,21,11,15.50
2016,04,21,21,12,15.50
2016,04,21,21,13,15.40
2016,04,21,21,14,15.30
2016,04,21,21,15,15.30
2016,04,21,21,16,15.20
2016,04,21,21,17,15.20
2016,04,21,21,18,15.30
2016,04,21,21,19,15.30
2016,04,21,21,20,15.30
2016,04,21,21,21,15.30
2016,04,21,21,22,15.40
2016,04,21,21,23,15.40
2016,04,21,21,24,15.40
2016,04,21,21,25,15.40
2016,04,21,21,26,15.40
2016,04,21,21,27,15.40
2016,04,21,21,28,15.40
2016,04,21,21,29,15.40
2016,04,21,21,30,15.30
2016,04,21,21,31,15.30
2016,04,21,21,32,15.30
2016,04,21,21,33,15.20
2016,04,21,21,34,15.10
2016,04,21,21,35,15.10
2016,04,21,21,36,15.00
2016,04,21,21,37,15.00
2016,04,21,21,38,15.00
2016,04,21,21,39,15.00
2016,04,21,21,40,15.00
2016,04,21,21,41,15.00
2016,04,21,21,42,15.00
2016,04,21,21,43,15.00
2016,04,21,21,44,15.00
2016,04,21,21,45,15.00
2016,04,21,21,46,15.00
2016,04,21,21,47,15.00
2016,04,21,21,48,15.00
2016,04,21,21,49,15.10
2016,04,21,21,50,15.30
2016,04,21,21,51,15.40
2016,04,21,21,52,15.50
2016,04,21,21,53,15.50
2016,04,21,21,54,15.60
2016,04,21,21,55,15.70
2016,04,21,21,56,15.70
2016,04,21,21,57,15.70
2016,04,21,21,58,15.70
2016,04,21,21,59,15.80
2016,04,21,22,00,15.80
2016,04,21,22,01,15.80
2016,04,21,22,02,15.80
2016,04,21,22,03,15.80
2016,04,21,22,04,15.80
2016,04,21,22,05,15.80
2016,04,21,22,06,15.80
2016,04,21,22,07,15.80
2016,04,21,22,08,15.70
2016,04,21,22,09,15.70
2016,04,21,22,10,15.70
2016,04,21,22,11,15.70
2016,04,21,22,12,15.70
2016,04,21,22,13,15.70
2016,04,21,22,14,15.70
2016,04,21,22,15,15.70
2016,04,21,22,16,15.70
2016,04,21,22,17,15.80
2016,04,21,22,18,15.80
2016,04,21,22,19,15.80
2016,04,21,22,20,15.80
2016,04,21,22,21,15.80
2016,04,21,22,22,15.80
2016,04,21,22,23,15.80
2016,04,21,22,24,15.90
2016,04,21,22,25,15.90
2016,04,21,22,26,15.90
2016,04,21,22,27,15.90
2016,04,21,22,28,15.90
2016,04,21,22,29,15.90
2016,04,21,22,30,15.90
2016,04,21,22,31,15.90
2016,04,21,22,32,15.90
2016,04,21,22,33,15.90
2016,04,21,22,34,15.90
2016,04,21,22,35,15.90
2016,04,21,22,36,15.90
2016,04,21,22,37,15.90
2016,04,21,22,38,15.90
2016,04,21,22,39,15.80
2016,04,21,22,40,15.80
2016,04,21,22,41,15.80
2016,04,21,22,42,15.80
2016,04,21,22,43,15.80
2016,04,21,22,44,15.80
2016,04,21,22,45,15.80
2016,04,21,22,46,15.80
2016,04,21,22,47,15.80
2016,04,21,22,48,15.80
2016,04,21,22,49,15.80
2016,04,21,22,50,15.80
2016,04,21,22,51,15.80
2016,04,21,22,52,15.80
2016,04,21,22,53,15.80
2016,04,21,22,54,15.80
2016,04,21,22,55,15.80
2016,04,21,22,56,15.80
2016,04,21,22,57,15.80
2016,04,21,22,58,15.80
2016,04,21,22,59,15.80
2016,04,21,23,00,15.80
2016,04,21,23,01,15.80
2016,04,21,23,02,15.80
2016,04,21,23,03,15.80
2016,04,21,23,04,15.80
2016,04,21,23,05,15.80
2016,04,21,23,06,15.80
2016,04,21,23,07,15.80
2016,04,21,23,08,15.80
2016,04,21,23,09,15.80
2016,04,21,23,10,15.80
2016,04,21,23,11,15.80
2016,04,21,23,12,15.80
2016,04,21,23,13,15.80
2016,04,21,23,14,15.80
2016,04,21,23,15,15.80
2016,04,21,23,16,15.80
2016,04,21,23,17,15.80
2016,04,21,23,18,15.80
2016,04,21,23,19,15.80
2016,04,21,23,20,15.80
2016,04,21,23,21,15.80
2016,04,21,23,22,15.80
2016,04,21,23,23,15.80
2016,04,21,23,24,15.80
2016,04,21,23,25,15.80
2016,04,21,23,26,15.80
2016,04,21,23,27,15.80
2016,04,21,23,28,15.80
2016,04,21,23,29,15.90
2016,04,21,23,30,15.90
2016,04,21,23,31,15.90
2016,04,21,23,32,15.90
2016,04,21,23,33,15.90
2016,04,21,23,34,15.90
2016,04,21,23,35,15.90
2016,04,21,23,36,15.90
2016,04,21,23,37,15.80
2016,04,21,23,38,15.80
2016,04,21,23,39,15.80
2016,04,21,23,40,15.80
2016,04,21,23,41,15.80
2016,04,21,23,42,15.70
2016,04,21,23,43,15.70
2016,04,21,23,44,15.70
2016,04,21,23,45,15.70
2016,04,21,23,46,15.70
2016,04,21,23,47,15.70
2016,04,21,23,48,15.70
2016,04,21,23,49,15.60
2016,04,21,23,50,15.60
2016,04,21,23,51,15.60
2016,04,21,23,52,15.60
2016,04,21,23,53,15.60
2016,04,21,23,54,15.50
2016,04,21,23,55,15.50
2016,04,21,23,56,15.50
2016,04,21,23,57,15.40
2016,04,21,23,58,15.40
2016,04,21,23,59,15.40
